[[{"header":{"parameterUnit":"m.s-1","parameterCategory":2,"la1":30.2991,"la2":30.254,"lo1":-89.0895,"lo2":-89.0444,"dy":0.0017,"dx":0.0017,"nx":28,"ny":28,"refTime":"2026-02-01T09:00:00:Z","depth":"0","parameterNumber":2,"parameterNumberName":"U-component_of_CURRENTS"},"data":[0,0,0,0,0,0,0,0,0,0,0,0,0,0,0,0,0,0,0,0,0,0,0,0,0,0,0,0,0,0,0,0,0,0,0,0,0,0,0,0,0,0,0,0,0,0,0,0,0,0,0,0,0,0,0,0,0,0,0.3262,0.3263,0,0.3299,0.3299,0.3299,0.3339,0.334,0.3341,0.3342,0.3372,0.3372,0.3372,0,0,0,0,0,0,0,0,0,0,0,0,0,0.3274,0.3273,0.3262,0.3263,0.3264,0.3299,0.3299,0.3299,0.3339,0.334,0.3341,0.3342,0.3372,0.3372,0.3372,0,0,0,0,0,0,0,0,0,0,0,0,0,0.3282,0.3272,0.3262,0.329,0.3294,0.3299,0.3299,0.3299,0.3339,0.334,0.3342,0.3343,0.3372,0.3372,0.3372,0.3344,0,0,0.3372,0.3372,0,0,0,0,0,0,0,0,0.3281,0.3281,0.3285,0.3288,0.3292,0.3319,0.3315,0.3315,0.3339,0.3318,0.3342,0.3344,0.3355,0.3356,0.3355,0.3346,0.3347,0.3372,0.3372,0.3371,0.3371,0,0,0,0,0,0,0,0.3281,0.328,0.3273,0.3286,0.329,0.3318,0.332,0.3315,0.3325,0.332,0.3324,0.3333,0.3356,0.3355,0.3356,0.3348,0.3372,0.3371,0.3371,0.3371,0.342,0.3421,0,0,0,0,0,0,0.3279,0.3279,0.3272,0.3275,0.3294,0.3317,0.3319,0.3306,0.3326,0.3331,0.3332,0.3335,0.3355,0.3356,0.3358,0.3426,0.3371,0.3371,0.3371,0.3419,0.342,0.3422,0,0,0,0,0,0,0.3278,0.3277,0.3271,0.3282,0.3284,0.3315,0.3301,0.3306,0.3317,0.3336,0.3341,0.334,0.3356,0.3358,0.3376,0.3424,0.3371,0.3371,0.3417,0.3419,0.3421,0.3498,0,0,0,0,0,0,0.3278,0.3276,0.3262,0.3281,0.3283,0.3288,0.33,0.3306,0.3322,0.3327,0.3343,0.3347,0.3357,0.3376,0.3376,0.3423,0.3371,0.3415,0.3418,0.342,0.3494,0.3503,0.351,0,0,0,0,0,0.3278,0.325,0.326,0.326,0.3263,0.3288,0.3292,0.3317,0.3321,0.333,0.3347,0.3347,0.3393,0.3376,0.3376,0.3424,0.3414,0.3417,0.342,0.3491,0.3501,0.351,0,0,0,0,0,0,0.3219,0.3252,0.3264,0.3238,0.3272,0.3297,0.3299,0.3316,0.3333,0.3335,0.335,0.3355,0.3393,0.3387,0.3369,0.3445,0.3408,0.3411,0.3462,0.3472,0.348,0.3543,0.3371,0,0,0,0,0,0.3205,0.3209,0.3243,0.3224,0.324,0.327,0.328,0.3302,0.3322,0.3331,0.3347,0.3368,0.3401,0.3418,0.3431,0.3459,0.3522,0.3493,0.3501,0.3508,0.3559,0.3698,0.3725,0.3431,0.3431,0.3431,0,0,0.3178,0.3195,0.3195,0.3216,0.3238,0.3279,0.3279,0.3298,0.3343,0.3329,0.3377,0.3386,0.3411,0.3458,0.3476,0.3463,0.3618,0.3512,0.3518,0.3566,0.3705,0.3734,0.376,0.3433,0.3433,0.3433,0,0,0.3157,0.3141,0.3164,0.3196,0.3241,0.3267,0.3277,0.3314,0.3342,0.3377,0.3399,0.3449,0.3459,0.3524,0.3551,0.3607,0.365,0.3593,0.3697,0.383,0.3857,0.3881,0.3978,0.4011,0.3606,0.3606,0.3606,0,0.3135,0.3163,0.3171,0.3213,0.3261,0.3269,0.333,0.3347,0.3388,0.3456,0.3402,0.3517,0.3511,0.3648,0.3665,0.3633,0.3703,0.3657,0.3846,0.3871,0.3896,0.3989,0.4025,0.361,0.361,0.3609,0.3609,0,0.3163,0.3187,0.3198,0.3272,0.3312,0.3353,0.3405,0.3449,0.3471,0.3527,0.3639,0.3634,0.3729,0.3719,0.3704,0.3878,0.3869,0.3835,0.3831,0.3931,0.4021,0.4057,0.3616,0.3615,0.3613,0.3612,0,0,0.3171,0.3214,0.3234,0.3292,0.3361,0.3408,0.3487,0.3613,0.3711,0.3729,0.3887,0.3913,0.3933,0.3965,0.3956,0.4055,0.4243,0.4021,0.4025,0.4135,0.4536,0.4421,0.4448,0.4251,0.4258,0.4263,0.4525,0,0.3226,0.331,0.3326,0.3435,0.3508,0.3556,0.3638,0.3745,0.3819,0.3953,0.4011,0.4111,0.4018,0.4063,0.4155,0.4228,0.4344,0.4175,0.441,0.4417,0.4319,0.4489,0.4206,0.4408,0.4559,0.4565,0.457,0,0.3319,0.3366,0.3465,0.3577,0.3614,0.3662,0.3857,0.3927,0.4107,0.4171,0.4299,0.4334,0.4488,0.4368,0.459,0.4489,0.4538,0.4575,0.4585,0.449,0.437,0.4335,0.4466,0.4343,0.4624,0.462,0.4616,0,0.3415,0.3501,0.3584,0.3618,0.3714,0.3785,0.385,0.4016,0.4123,0.4325,0.4436,0.4595,0.4679,0.4789,0.4816,0.4743,0.5053,0.4958,0.4915,0.4905,0.4721,0.4683,0.478,0.5164,0.5163,0.5163,0.5162,0,0.3523,0.3601,0.362,0.3668,0.3788,0.3847,0.4003,0.4096,0.4276,0.4427,0.4539,0.4672,0.4792,0.4944,0.4958,0.5051,0.5174,0.5003,0.4999,0.4731,0.4693,0.4616,0.4572,0.5172,0.517,0.5168,0.5167,0,0.3633,0.3636,0.3734,0.3807,0.3825,0.3919,0.4046,0.4168,0.432,0.4527,0.46,0.4811,0.4974,0.5078,0.5266,0.5222,0.5179,0.5319,0.4973,0.4923,0.4709,0.4678,0.4717,0.458,0.5343,0.5342,0.5341,0,0.3707,0.3756,0.3809,0.3844,0.3861,0.3973,0.4047,0.4181,0.4297,0.4579,0.468,0.4915,0.5015,0.5252,0.523,0.5303,0.5169,0.511,0.4912,0.4729,0.4695,0.4551,0.4421,0.4696,0.469,0.4686,0.4682,0,0.385,0.3837,0.3883,0.3921,0.3973,0.4037,0.4133,0.4212,0.438,0.4519,0.4687,0.4794,0.4998,0.4927,0.5032,0.5029,0.4844,0.5011,0.4936,0.4324,0.4067,0.3917,0.4477,0.4639,0.4643,0.4646,0.4649,0.465,0.3941,0.3974,0.3979,0.3994,0.4042,0.4036,0.4021,0.4106,0.4191,0.426,0.4496,0.4507,0.4614,0.4677,0.4679,0.4511,0.4558,0.4347,0.437,0.4276,0.4006,0.4462,0.4532,0.4536,0.4539,0.4541,0.4544,0,0.4005,0.3997,0.4049,0.4012,0.398,0.4003,0.4024,0.393,0.3881,0.3985,0.4021,0.403,0.3984,0.4073,0.4024,0.3889,0.3714,0.3804,0.3532,0.3469,0.3978,0.3803,0.3576,0.3576,0.3576,0.3576,0.3576,0.3576,0.4051,0.4038,0.4003,0.3906,0.3865,0.3717,0.3652,0.3508,0.3486,0.3337,0.3284,0.3365,0.3646,0.3728,0.3586,0.3488,0.3256,0.3091,0.3182,0.3515,0.3565,0.3612,0.3437,0.3138,0.3137,0.2443,0.2438,0.2434]},{"header":{"parameterUnit":"m.s-1","parameterCategory":2,"la1":30.2991,"la2":30.254,"lo1":-89.0895,"lo2":-89.0444,"dy":0.0017,"dx":0.0017,"nx":28,"ny":28,"refTime":"2026-02-01T09:00:00:Z","depth":"0","parameterNumber":3,"parameterNumberName":"V-component_of_CURRENTS"},"data":[0,0,0,0,0,0,0,0,0,0,0,0,0,0,0,0,0,0,0,0,0,0,0,0,0,0,0,0,0,0,0,0,0,0,0,0,0,0,0,0,0,0,0,0,0,0,0,0,0,0,0,0,0,0,0,0,0,0,0.0023,0.0022,0,-0.0069,-0.0071,-0.0072,-0.0143,-0.0144,-0.0144,-0.0145,-0.0264,-0.0267,-0.0269,0,0,0,0,0,0,0,0,0,0,0,0,0,0.0069,0.0069,0.0023,0.0022,0.0021,-0.0069,-0.0071,-0.0072,-0.0143,-0.0144,-0.0144,-0.0145,-0.0263,-0.0266,-0.027,0,0,0,0,0,0,0,0,0,0,0,0,0,0.0018,0.0068,0.0023,-0.0024,-0.0029,-0.0069,-0.0071,-0.0073,-0.0143,-0.0144,-0.0145,-0.0145,-0.0262,-0.0266,-0.027,-0.0281,0,0,-0.0283,-0.0284,0,0,0,0,0,0,0,0,0.0021,0.0016,-0.0016,-0.0021,-0.0026,-0.0094,-0.0098,-0.0143,-0.0143,-0.0102,-0.0145,-0.0146,-0.0207,-0.0216,-0.0235,-0.0287,-0.0292,-0.0283,-0.0285,-0.0287,-0.0288,0,0,0,0,0,0,0,0.0025,0.0019,-0.0016,-0.0017,-0.0023,-0.0063,-0.0071,-0.0107,-0.0152,-0.0106,-0.0111,-0.0117,-0.0211,-0.0231,-0.0238,-0.0294,-0.0283,-0.0287,-0.0289,-0.0291,-0.0344,-0.0343,0,0,0,0,0,0,0.0045,0.0023,-0.0013,-0.0019,-0.0001,-0.0063,-0.0072,-0.0073,-0.0151,-0.0163,-0.0116,-0.012,-0.0223,-0.0233,-0.0243,-0.023,-0.0287,-0.0291,-0.0293,-0.0345,-0.0343,-0.0342,0,0,0,0,0,0,0.0047,0.0043,-0.001,0.0001,-0.0008,-0.0062,-0.0064,-0.0075,-0.0091,-0.0158,-0.0171,-0.012,-0.0224,-0.0237,-0.0264,-0.0237,-0.0293,-0.0297,-0.0346,-0.0344,-0.0343,-0.0225,0,0,0,0,0,0,0.0048,0.0044,0.005,0.0003,-0.0007,-0.0016,-0.0063,-0.0076,-0.0092,-0.0098,-0.0166,-0.0178,-0.0226,-0.0258,-0.0268,-0.0243,-0.03,-0.0347,-0.0345,-0.0343,-0.0231,-0.022,-0.0211,0,0,0,0,0,0.005,0.0071,0.0051,0.0047,0.0003,-0.0014,-0.0023,-0.0067,-0.0091,-0.0087,-0.0135,-0.0176,-0.0253,-0.026,-0.0273,-0.0249,-0.0348,-0.0346,-0.0343,-0.0235,-0.0222,-0.0211,0,0,0,0,0,0,0.0101,0.0064,0.0042,0.0051,0.0026,-0.0025,-0.0026,-0.0056,-0.0092,-0.0098,-0.0167,-0.0182,-0.0198,-0.0238,-0.0244,-0.0258,-0.0305,-0.0305,-0.0218,-0.0207,-0.0197,-0.016,-0.0303,0,0,0,0,0,0.0114,0.0114,0.0076,0.0084,0.0076,0.0026,0.0012,-0.0014,-0.0052,-0.0069,-0.0117,-0.0164,-0.0198,-0.0213,-0.0255,-0.0259,-0.028,-0.0251,-0.0241,-0.0233,-0.0211,-0.0214,-0.0201,-0.0334,-0.0334,-0.0334,0,0,0.0135,0.0116,0.0115,0.0094,0.0068,0.0076,0.0016,0.0009,0.0017,-0.0075,-0.008,-0.0135,-0.0194,-0.0203,-0.0212,-0.0231,-0.0207,-0.023,-0.0222,-0.0205,-0.021,-0.0197,-0.0185,-0.0333,-0.0333,-0.0333,0,0,0.0185,0.0162,0.018,0.0169,0.0144,0.0117,0.0122,0.0079,0.0062,0.0046,-0.0014,-0.0046,-0.0104,-0.0132,-0.0156,-0.0114,-0.016,-0.0131,-0.0044,-0.0046,-0.0035,-0.0025,-0.0034,-0.0026,-0.0118,-0.0118,-0.0118,0,0.0211,0.0232,0.0185,0.0205,0.0209,0.0146,0.0178,0.0154,0.0108,0.0112,0.0062,-0.0001,-0.0066,-0.0054,-0.0052,-0.0089,-0.01,-0.0083,-0.0031,-0.0022,-0.0014,-0.0026,-0.0018,-0.0112,-0.0113,-0.0113,-0.0114,0,0.0274,0.0294,0.0308,0.0311,0.0309,0.0327,0.0294,0.0291,0.0254,0.023,0.0222,0.0135,0.0103,0.0075,0.0016,0.0049,0.0019,-0.0022,-0.0055,0.0007,-0.001,-0.0004,-0.0103,-0.0106,-0.0107,-0.0109,0,0,0.0322,0.0349,0.0353,0.039,0.0371,0.0388,0.0403,0.0414,0.0453,0.0385,0.0434,0.0339,0.0289,0.0259,0.0188,0.0178,0.0199,0.0109,0.0106,0.0111,0.0199,0.0155,0.0156,0.0172,0.0173,0.0175,0.0164,0,0.0388,0.0467,0.045,0.0531,0.0574,0.0536,0.0567,0.0566,0.0548,0.0578,0.0498,0.0505,0.0362,0.036,0.0319,0.0239,0.022,0.0206,0.0127,0.0125,0.0089,0.0163,0.0127,0.0113,0.0169,0.017,0.0171,0,0.0452,0.0504,0.0594,0.067,0.0684,0.0715,0.0773,0.0798,0.0807,0.0799,0.0775,0.0712,0.0676,0.0554,0.0441,0.0442,0.0328,0.0255,0.0252,0.0179,0.0093,0.0058,0.012,-0.0082,0.0178,0.0178,0.0177,0,0.0525,0.0608,0.0693,0.0713,0.0774,0.0812,0.0846,0.0866,0.0931,0.0957,0.1014,0.0924,0.0921,0.0769,0.0564,0.0519,0.0455,0.0371,0.0227,0.0222,0.016,0.0147,0.0029,0.0306,0.0306,0.0306,0.0306,0,0.0602,0.0673,0.0739,0.0786,0.0904,0.0912,0.1035,0.105,0.1125,0.1246,0.114,0.1214,0.0978,0.0892,0.0668,0.0474,0.0524,0.0269,0.023,0.0197,0.0189,-0.0019,-0.0144,0.0306,0.0306,0.0306,0.0306,0,0.0657,0.07,0.0809,0.0899,0.0938,0.1022,0.1162,0.1265,0.1314,0.1475,0.1504,0.1462,0.135,0.1098,0.0878,0.0641,0.0319,0.0355,0.0328,0.0285,-0.0057,-0.0174,-0.0338,-0.0404,0.0207,0.0206,0.0206,0,0.0689,0.0748,0.0885,0.0969,0.1011,0.1146,0.1252,0.1342,0.1474,0.1633,0.1736,0.1688,0.1661,0.1314,0.09,0.0535,0.0319,0.0264,0.0156,-0.0053,-0.0212,-0.0304,-0.0353,0.0116,0.0114,0.0113,0.0112,0,0.0741,0.0783,0.0875,0.1055,0.1182,0.1347,0.1512,0.1648,0.1793,0.1935,0.2087,0.2084,0.1753,0.1362,0.086,0.059,0.0111,0.0228,0.0025,-0.0271,-0.0389,-0.0479,0.0091,0.0101,0.0103,0.0103,0.0104,0.0104,0.0769,0.0846,0.0977,0.115,0.1308,0.1524,0.1674,0.1871,0.2094,0.2289,0.2295,0.2291,0.175,0.1055,0.0696,0.0016,0.0024,-0.0224,-0.0339,-0.0404,-0.0497,0.0051,0.0004,0.0004,0.0005,0.0005,0.0005,0,0.0832,0.0925,0.1076,0.1287,0.1467,0.1549,0.1835,0.1988,0.2247,0.2384,0.2469,0.2167,0.1519,0.0885,-0.0022,-0.0482,-0.0629,-0.0724,-0.0871,-0.0885,-0.0387,-0.0421,-0.0577,-0.0577,-0.0577,-0.0577,-0.0577,-0.0576,0.0869,0.102,0.1106,0.1382,0.1532,0.179,0.1955,0.2158,0.2305,0.2421,0.2379,0.2317,0.1814,0.0243,-0.0776,-0.0988,-0.127,-0.1384,-0.1472,-0.117,-0.1133,-0.1097,-0.1157,-0.1465,-0.1466,-0.1917,-0.1922,-0.1926]}],[{"header":{"parameterUnit":"m.s-1","parameterCategory":2,"la1":30.2991,"la2":30.254,"lo1":-89.0895,"lo2":-89.0444,"dy":0.0017,"dx":0.0017,"nx":28,"ny":28,"refTime":"2026-02-01T09:00:00:Z","depth":"2","parameterNumber":2,"parameterNumberName":"U-component_of_CURRENTS"},"data":[0,0,0,0,0,0,0,0,0,0,0,0,0,0,0,0,0,0,0,0,0,0,0,0,0,0,0,0,0,0,0,0,0,0,0,0,0,0,0,0,0,0,0,0,0,0,0,0,0,0,0,0,0,0,0,0,0,0,0.2727,0.2728,0,0.2783,0.2783,0.2784,0.2825,0.2826,0.2826,0.2827,0.2867,0.2867,0.2868,0,0,0,0,0,0,0,0,0,0,0,0,0,0.2668,0.2669,0.2727,0.2728,0.2729,0.2783,0.2783,0.2784,0.2825,0.2826,0.2826,0.2827,0.2867,0.2867,0.2868,0,0,0,0,0,0,0,0,0,0,0,0,0,0.2703,0.2669,0.2726,0.2758,0.2761,0.2783,0.2783,0.2784,0.2825,0.2826,0.2827,0.2827,0.2866,0.2867,0.2868,0.2854,0,0,0.287,0.2871,0,0,0,0,0,0,0,0,0.2701,0.2705,0.2752,0.2755,0.276,0.28,0.2778,0.2808,0.2825,0.2798,0.2827,0.2828,0.2844,0.2847,0.2852,0.2856,0.2858,0.287,0.2871,0.2871,0.2871,0,0,0,0,0,0,0,0.2699,0.2703,0.2746,0.2753,0.2758,0.2773,0.2779,0.2783,0.2813,0.28,0.2804,0.2814,0.2846,0.2851,0.2853,0.2859,0.287,0.2871,0.2871,0.2872,0.2944,0.2945,0,0,0,0,0,0,0.2695,0.2701,0.2744,0.2748,0.2735,0.2774,0.278,0.2784,0.2813,0.282,0.2813,0.2816,0.2849,0.2852,0.2855,0.2924,0.2871,0.2872,0.2872,0.2943,0.2944,0.2946,0,0,0,0,0,0,0.2694,0.2698,0.2742,0.2728,0.2735,0.2774,0.2778,0.2785,0.2806,0.2824,0.2829,0.283,0.285,0.2853,0.2879,0.2922,0.2872,0.2873,0.2941,0.2943,0.2945,0.3009,0,0,0,0,0,0,0.2692,0.2697,0.2701,0.2728,0.2736,0.2768,0.2778,0.2785,0.2811,0.2816,0.284,0.2844,0.2851,0.2878,0.288,0.2923,0.2873,0.2939,0.2942,0.2944,0.3005,0.3013,0.302,0,0,0,0,0,0.2689,0.2686,0.2701,0.2707,0.2739,0.2769,0.2775,0.2803,0.2811,0.2824,0.2844,0.2844,0.2898,0.2879,0.2881,0.2925,0.2938,0.2941,0.2944,0.3001,0.3011,0.3019,0,0,0,0,0,0,0.2649,0.2691,0.2708,0.2714,0.2748,0.2777,0.279,0.2808,0.2833,0.2839,0.2851,0.2857,0.29,0.2897,0.2876,0.2955,0.2922,0.2926,0.2965,0.2974,0.2981,0.3012,0.2874,0,0,0,0,0,0.2646,0.2662,0.2702,0.2708,0.2727,0.276,0.2777,0.2799,0.2824,0.2837,0.2855,0.2879,0.2911,0.2929,0.2946,0.2978,0.3021,0.3011,0.3019,0.3025,0.3052,0.316,0.3181,0.2957,0.2957,0.2957,0,0,0.2632,0.2657,0.2665,0.2703,0.273,0.2768,0.2772,0.2803,0.2842,0.2835,0.2884,0.29,0.2924,0.2971,0.2991,0.2977,0.3108,0.303,0.3035,0.3059,0.3166,0.3188,0.3208,0.2959,0.2959,0.2958,0,0,0.2625,0.2637,0.2662,0.2695,0.2746,0.277,0.2783,0.2825,0.2854,0.2894,0.2913,0.2959,0.2984,0.3032,0.3054,0.311,0.3141,0.3111,0.318,0.3284,0.3304,0.3322,0.3394,0.3418,0.3119,0.3119,0.3119,0,0.2615,0.2652,0.2671,0.2712,0.2753,0.2776,0.2826,0.285,0.2896,0.2945,0.2918,0.3025,0.3024,0.3131,0.3146,0.3132,0.3185,0.3143,0.3297,0.3316,0.3333,0.3403,0.3429,0.3123,0.3122,0.3122,0.3122,0,0.2641,0.2677,0.2693,0.2761,0.2799,0.284,0.289,0.2932,0.2962,0.3006,0.3105,0.3118,0.3202,0.3197,0.3182,0.3316,0.331,0.3291,0.3278,0.336,0.3427,0.3453,0.3128,0.3126,0.3125,0.3125,0,0,0.2628,0.2702,0.2715,0.2767,0.2839,0.2876,0.2947,0.3043,0.3126,0.3156,0.3282,0.3312,0.3346,0.3374,0.3379,0.3443,0.3584,0.342,0.3424,0.3499,0.3812,0.367,0.3684,0.3602,0.3607,0.3611,0.3805,0,0.2663,0.2746,0.2776,0.2868,0.2927,0.2981,0.3051,0.3135,0.321,0.3325,0.3376,0.3474,0.3408,0.3464,0.3527,0.3579,0.3659,0.3533,0.3715,0.372,0.3591,0.3712,0.3402,0.3538,0.383,0.3834,0.3837,0,0.2714,0.2763,0.2857,0.2963,0.2995,0.3048,0.3207,0.327,0.3422,0.3488,0.3607,0.3654,0.3773,0.3692,0.3855,0.3784,0.3815,0.383,0.3839,0.3708,0.3628,0.3505,0.3574,0.3881,0.3877,0.3874,0.3871,0,0.2743,0.2838,0.2919,0.2954,0.3058,0.3127,0.319,0.3335,0.3429,0.3614,0.3727,0.3856,0.3945,0.4019,0.403,0.3979,0.4188,0.413,0.4039,0.4028,0.3801,0.3761,0.4271,0.427,0.427,0.4269,0.4269,0,0.2795,0.2861,0.2939,0.2982,0.3083,0.3159,0.3297,0.3387,0.3565,0.3691,0.3818,0.3943,0.4032,0.4142,0.4137,0.4168,0.4293,0.409,0.4089,0.3808,0.3769,0.4085,0.4061,0.4277,0.4275,0.4274,0.4272,0,0.2826,0.2874,0.2966,0.307,0.3098,0.3178,0.3323,0.3431,0.3605,0.379,0.3861,0.4061,0.4178,0.4248,0.4361,0.4297,0.4338,0.4313,0.3955,0.3905,0.4086,0.4063,0.427,0.4268,0.4265,0.4263,0.4261,0,0.2849,0.2912,0.3004,0.3046,0.3091,0.32,0.3269,0.3426,0.3544,0.3828,0.3918,0.4115,0.4176,0.4306,0.4254,0.4268,0.4325,0.3972,0.3805,0.4119,0.4097,0.4078,0.4059,0.3537,0.3529,0.3523,0.3518,0,0.2888,0.2928,0.2965,0.3067,0.3137,0.3195,0.3311,0.3385,0.3575,0.3721,0.3864,0.3937,0.4081,0.3923,0.3962,0.3921,0.3939,0.3844,0.4335,0.3556,0.3435,0.341,0.3415,0.3463,0.3469,0.3473,0.3476,0.3478,0.2879,0.2921,0.2982,0.3066,0.3138,0.3157,0.3143,0.3257,0.3344,0.3474,0.364,0.3635,0.3683,0.3553,0.3462,0.341,0.3662,0.3486,0.3503,0.3527,0.3379,0.3257,0.3225,0.3228,0.3232,0.3235,0.3238,0,0.288,0.2917,0.2987,0.3021,0.304,0.3118,0.3145,0.3077,0.3058,0.32,0.3249,0.3,0.2921,0.2985,0.2817,0.2818,0.2783,0.2705,0.2622,0.2681,0.2732,0.2539,0.2165,0.2161,0.2157,0.2154,0,0,0.286,0.2877,0.2905,0.2887,0.2932,0.2851,0.2807,0.2716,0.2731,0.2647,0.2621,0.282,0.2906,0.249,0.2451,0.227,0.2457,0.2196,0.3067,0.303,0.3076,0.3205,0.2977,0,0,0,0,0]},{"header":{"parameterUnit":"m.s-1","parameterCategory":2,"la1":30.2991,"la2":30.254,"lo1":-89.0895,"lo2":-89.0444,"dy":0.0017,"dx":0.0017,"nx":28,"ny":28,"refTime":"2026-02-01T09:00:00:Z","depth":"2","parameterNumber":3,"parameterNumberName":"V-component_of_CURRENTS"},"data":[0,0,0,0,0,0,0,0,0,0,0,0,0,0,0,0,0,0,0,0,0,0,0,0,0,0,0,0,0,0,0,0,0,0,0,0,0,0,0,0,0,0,0,0,0,0,0,0,0,0,0,0,0,0,0,0,0,0,0.0093,0.0093,0,0.0005,0.0004,0.0002,-0.0056,-0.0056,-0.0057,-0.0057,-0.0168,-0.0171,-0.0174,0,0,0,0,0,0,0,0,0,0,0,0,0,0.0156,0.0155,0.0093,0.0093,0.0092,0.0005,0.0004,0.0002,-0.0056,-0.0056,-0.0057,-0.0057,-0.0167,-0.0171,-0.0174,0,0,0,0,0,0,0,0,0,0,0,0,0,0.0102,0.0155,0.0094,0.0053,0.0049,0.0005,0.0003,0.0002,-0.0056,-0.0056,-0.0057,-0.0057,-0.0166,-0.017,-0.0175,-0.0194,0,0,-0.0187,-0.0189,0,0,0,0,0,0,0,0,0.0105,0.01,0.006,0.0056,0.0051,-0.0013,-0.0016,-0.0064,-0.0056,-0.0018,-0.0057,-0.0057,-0.0117,-0.0125,-0.0144,-0.0199,-0.0204,-0.0188,-0.019,-0.0192,-0.0193,0,0,0,0,0,0,0,0.0109,0.0103,0.0056,0.0059,0.0054,0.002,0.0013,-0.0025,-0.0067,-0.0021,-0.0025,-0.0032,-0.012,-0.014,-0.0147,-0.0205,-0.0187,-0.0191,-0.0194,-0.0195,-0.026,-0.0259,0,0,0,0,0,0,0.0127,0.0107,0.0059,0.0054,0.008,0.002,0.0011,0.0006,-0.0066,-0.0076,-0.0032,-0.0035,-0.0132,-0.0142,-0.0151,-0.0149,-0.0192,-0.0196,-0.0198,-0.0261,-0.026,-0.0259,0,0,0,0,0,0,0.0129,0.0124,0.0063,0.008,0.007,0.002,0.0014,0.0005,-0.0011,-0.0073,-0.0085,-0.0037,-0.0133,-0.0145,-0.0174,-0.0154,-0.0198,-0.0201,-0.0262,-0.026,-0.0259,-0.0163,0,0,0,0,0,0,0.0131,0.0125,0.0127,0.0081,0.007,0.005,0.0014,0.0003,-0.0014,-0.0019,-0.0082,-0.0093,-0.0134,-0.0168,-0.0178,-0.0161,-0.0205,-0.0263,-0.0261,-0.026,-0.0167,-0.0158,-0.0151,0,0,0,0,0,0.0134,0.0143,0.0128,0.0122,0.0074,0.0051,0.0043,0.0004,-0.0014,-0.0013,-0.0055,-0.009,-0.0166,-0.017,-0.0183,-0.0166,-0.0263,-0.0261,-0.026,-0.017,-0.016,-0.0151,0,0,0,0,0,0,0.0172,0.0137,0.0119,0.0117,0.0092,0.0042,0.0038,0.0012,-0.0022,-0.0025,-0.0086,-0.0099,-0.0118,-0.0155,-0.0159,-0.0181,-0.0219,-0.0219,-0.0146,-0.0137,-0.0129,-0.01,-0.0208,0,0,0,0,0,0.0182,0.0179,0.0141,0.014,0.0131,0.0086,0.0071,0.0049,0.0013,-0.0003,-0.0046,-0.0089,-0.0122,-0.0138,-0.0177,-0.0189,-0.0221,-0.0186,-0.0178,-0.0171,-0.0155,-0.0183,-0.0176,-0.0253,-0.0253,-0.0253,0,0,0.0196,0.0177,0.0174,0.0148,0.0124,0.0127,0.0076,0.0066,0.007,-0.0009,-0.0018,-0.0067,-0.0121,-0.0135,-0.0145,-0.0161,-0.0166,-0.0169,-0.0162,-0.015,-0.0181,-0.0173,-0.0167,-0.0252,-0.0252,-0.0252,0,0,0.0232,0.0208,0.0221,0.0208,0.0185,0.016,0.0163,0.0122,0.0105,0.0086,0.0036,0.0003,-0.0052,-0.0081,-0.0104,-0.0075,-0.0127,-0.0089,-0.0021,-0.0049,-0.0042,-0.0037,-0.0068,-0.0066,-0.008,-0.008,-0.008,0,0.025,0.0264,0.0222,0.0237,0.0239,0.0184,0.0208,0.0184,0.0139,0.0137,0.0099,0.0031,-0.0023,-0.0028,-0.0023,-0.0056,-0.0081,-0.0052,-0.0037,-0.0032,-0.0029,-0.0062,-0.0061,-0.0075,-0.0075,-0.0076,-0.0076,0,0.0298,0.0312,0.0322,0.0324,0.0319,0.0331,0.0299,0.0292,0.026,0.0234,0.0214,0.0138,0.0102,0.0077,0.0031,0.0038,0.0007,-0.0026,-0.0057,-0.0015,-0.0053,-0.0054,-0.0068,-0.007,-0.0071,-0.0072,0,0,0.0329,0.0354,0.0356,0.0389,0.0371,0.0381,0.0389,0.0388,0.0414,0.0349,0.0373,0.0292,0.0247,0.0219,0.0157,0.0128,0.0117,0.007,0.0066,0.0047,0.0058,0.0003,-0.0004,0.0087,0.0088,0.0088,0.002,0,0.0381,0.0449,0.0434,0.0501,0.0538,0.0502,0.0521,0.0512,0.0489,0.0496,0.0416,0.0407,0.0304,0.0295,0.0246,0.0154,0.0119,0.0138,0.0013,0.0009,-0.0037,-0.0005,0.0029,-0.0031,0.0019,0.0018,0.0018,0,0.0431,0.0477,0.0555,0.0617,0.0628,0.0652,0.069,0.0704,0.0687,0.0672,0.0637,0.057,0.0514,0.0424,0.0284,0.0302,0.0192,0.011,0.0104,0.0022,-0.0047,-0.0066,-0.0035,0.0016,0.0016,0.0016,0.0016,0,0.0492,0.0562,0.0637,0.0655,0.0704,0.0733,0.0757,0.0758,0.0806,0.0795,0.083,0.0722,0.0697,0.0544,0.0343,0.0323,0.0189,0.0138,-0.0014,-0.002,-0.0031,-0.0038,0.0049,0.0049,0.0049,0.0049,0.0049,0,0.0555,0.0617,0.0679,0.0721,0.082,0.0821,0.0919,0.092,0.0964,0.1048,0.0935,0.0965,0.0727,0.0609,0.0407,0.0193,0.0231,0.0008,-0.0036,0.0002,-0.0002,0.0004,0.0,0.0047,0.0047,0.0048,0.0048,0,0.0608,0.0642,0.0744,0.0823,0.0852,0.0927,0.1039,0.1121,0.114,0.125,0.126,0.1161,0.0996,0.0744,0.0494,0.0295,0.0084,-0.0004,0.0048,0.0011,-0.0123,-0.0121,-0.0168,-0.017,-0.0172,-0.0174,-0.0175,0,0.0644,0.07,0.0822,0.09,0.094,0.1054,0.1141,0.1198,0.1307,0.1373,0.1445,0.1314,0.1217,0.0819,0.0459,0.0107,0.0064,-0.009,-0.0132,-0.0104,-0.0142,-0.0137,-0.0133,-0.0109,-0.0109,-0.011,-0.011,0,0.0717,0.0754,0.084,0.1002,0.1113,0.1254,0.139,0.1494,0.1582,0.1653,0.1692,0.1607,0.1239,0.086,0.0384,0.0154,-0.0037,-0.0115,-0.0079,-0.0066,-0.0056,-0.0091,-0.0087,-0.0116,-0.0115,-0.0115,-0.0115,-0.0114,0.0775,0.0849,0.0966,0.1118,0.1256,0.1431,0.1546,0.169,0.183,0.1927,0.1852,0.1728,0.1327,0.0692,0.0299,-0.0092,-0.0079,-0.0224,-0.0219,-0.0213,-0.0201,-0.0196,-0.028,-0.028,-0.028,-0.0281,-0.0281,0,0.0873,0.0946,0.1083,0.1263,0.1418,0.1483,0.17,0.1799,0.1942,0.2004,0.199,0.159,0.1178,0.0739,0.0149,-0.0218,-0.0222,-0.0324,-0.0249,-0.0241,-0.0235,-0.0222,-0.0307,-0.0308,-0.0309,-0.031,0,0,0.0926,0.1065,0.1126,0.1365,0.1493,0.1694,0.1811,0.1921,0.1999,0.2014,0.1946,0.1818,0.128,0.0849,0.0362,0.0026,-0.0019,-0.0034,0.0026,0.018,0.0191,-0.0141,-0.0108,0,0,0,0,0]}],[{"header":{"parameterUnit":"m.s-1","parameterCategory":2,"la1":30.2991,"la2":30.254,"lo1":-89.0895,"lo2":-89.0444,"dy":0.0017,"dx":0.0017,"nx":28,"ny":28,"refTime":"2026-02-01T09:00:00:Z","depth":"4","parameterNumber":2,"parameterNumberName":"U-component_of_CURRENTS"},"data":[0,0,0,0,0,0,0,0,0,0,0,0,0,0,0,0,0,0,0,0,0,0,0,0,0,0,0,0,0,0,0,0,0,0,0,0,0,0,0,0,0,0,0,0,0,0,0,0,0,0,0,0,0,0,0,0,0,0,0.1739,0.174,0,0.1834,0.1835,0.1836,0.1917,0.1918,0.1919,0.1921,0.2023,0.2025,0.2027,0,0,0,0,0,0,0,0,0,0,0,0,0,0.1601,0.1603,0.1739,0.174,0.1742,0.1834,0.1835,0.1836,0.1917,0.1918,0.192,0.1921,0.2023,0.2025,0.2027,0,0,0,0,0,0,0,0,0,0,0,0,0,0.1673,0.1604,0.1739,0.1795,0.1801,0.1833,0.1835,0.1836,0.1917,0.1918,0.192,0.1922,0.2022,0.2024,0.2027,0.201,0,0,0.2035,0.2036,0,0,0,0,0,0,0,0,0.1669,0.1678,0.1785,0.1791,0.1798,0.1867,0.1824,0.1895,0.1916,0.1871,0.1921,0.1922,0.1972,0.1979,0.199,0.2015,0.2019,0.2035,0.2037,0.2038,0.2038,0,0,0,0,0,0,0,0.1664,0.1674,0.1775,0.1786,0.1794,0.1806,0.1818,0.1838,0.1909,0.1875,0.1881,0.1895,0.1975,0.1987,0.1993,0.2021,0.2035,0.2037,0.2039,0.204,0.2165,0.2166,0,0,0,0,0,0,0.1656,0.1669,0.1772,0.1778,0.1738,0.1807,0.1821,0.1842,0.1909,0.1922,0.1893,0.1898,0.1982,0.199,0.1997,0.21,0.2038,0.204,0.2042,0.2163,0.2165,0.2167,0,0,0,0,0,0,0.1653,0.1664,0.1768,0.1727,0.1741,0.1808,0.1831,0.1843,0.1897,0.1924,0.1936,0.194,0.1984,0.1993,0.2052,0.21,0.2041,0.2044,0.2161,0.2163,0.2166,0.2229,0,0,0,0,0,0,0.1648,0.1663,0.1693,0.1726,0.1743,0.1813,0.183,0.1843,0.19,0.1909,0.1967,0.1976,0.1986,0.2048,0.2055,0.2102,0.2046,0.2158,0.2162,0.2165,0.2224,0.2233,0.2241,0,0,0,0,0,0.1643,0.1669,0.1694,0.1707,0.1777,0.1814,0.1824,0.1875,0.1901,0.1929,0.1972,0.1976,0.2074,0.2052,0.2059,0.2108,0.2157,0.2161,0.2165,0.2221,0.2231,0.2241,0,0,0,0,0,0,0.1629,0.1681,0.1709,0.1753,0.1794,0.1829,0.1865,0.1894,0.1948,0.1971,0.1993,0.2005,0.2077,0.2079,0.2053,0.2154,0.2118,0.2124,0.2158,0.2169,0.2177,0.218,0.2048,0,0,0,0,0,0.1638,0.1674,0.172,0.176,0.1784,0.1831,0.186,0.1895,0.1938,0.1966,0.2005,0.2049,0.209,0.212,0.2151,0.2199,0.2211,0.2238,0.2246,0.2253,0.2261,0.2324,0.2339,0.218,0.218,0.218,0,0,0.1643,0.1679,0.1701,0.176,0.1799,0.1839,0.1854,0.191,0.1955,0.1966,0.2049,0.208,0.2109,0.2172,0.2204,0.2186,0.2303,0.2258,0.2263,0.2268,0.233,0.2346,0.2359,0.2183,0.2182,0.2182,0,0,0.1659,0.1707,0.1741,0.1778,0.1843,0.187,0.1894,0.1952,0.1997,0.2063,0.2091,0.2151,0.2209,0.2244,0.2265,0.2334,0.2344,0.2352,0.24,0.2462,0.2475,0.2487,0.2514,0.2528,0.2357,0.2357,0.2357,0,0.167,0.1716,0.1756,0.1798,0.1837,0.1887,0.1932,0.1976,0.205,0.2093,0.2102,0.2219,0.2242,0.2323,0.2352,0.2355,0.2382,0.2359,0.2473,0.2485,0.2496,0.2521,0.2536,0.236,0.236,0.236,0.2359,0,0.1699,0.1752,0.1776,0.1847,0.1892,0.1938,0.1999,0.2059,0.2116,0.2162,0.2266,0.2303,0.2375,0.2394,0.2396,0.2495,0.2484,0.2475,0.2447,0.2516,0.2537,0.2551,0.2365,0.2364,0.2363,0.2362,0,0,0.1674,0.1777,0.1789,0.1832,0.1924,0.1957,0.2043,0.2127,0.2194,0.2271,0.236,0.2434,0.2472,0.2498,0.2519,0.2568,0.2665,0.2564,0.2566,0.2588,0.2793,0.2595,0.2591,0.2688,0.2691,0.2693,0.2772,0,0.1689,0.176,0.182,0.1899,0.1937,0.2021,0.209,0.2178,0.2259,0.2355,0.2423,0.2515,0.2507,0.2561,0.2612,0.2662,0.2708,0.2643,0.2724,0.2725,0.254,0.2603,0.2703,0.2782,0.2785,0.2788,0.2789,0,0.1686,0.1737,0.1811,0.1922,0.1951,0.2017,0.2144,0.2218,0.2357,0.2427,0.2536,0.2596,0.2703,0.2677,0.2799,0.2767,0.2789,0.2808,0.2811,0.2614,0.2554,0.2701,0.2815,0.2813,0.2811,0.2809,0.2808,0,0.1615,0.1728,0.1786,0.1823,0.1953,0.2024,0.211,0.2247,0.2327,0.2494,0.2578,0.2697,0.2788,0.2843,0.2889,0.287,0.2996,0.297,0.2807,0.2793,0.292,0.2906,0.3048,0.3048,0.3048,0.3048,0.3048,0,0.1582,0.1634,0.1765,0.1798,0.1886,0.1996,0.2114,0.2221,0.2377,0.2475,0.262,0.2705,0.2843,0.2925,0.2934,0.2907,0.3039,0.2822,0.2806,0.2942,0.293,0.2929,0.2914,0.3051,0.305,0.305,0.3049,0,0.1497,0.158,0.1651,0.1798,0.1856,0.1921,0.2118,0.2193,0.2363,0.2502,0.2567,0.2758,0.2861,0.2947,0.3044,0.2954,0.295,0.2904,0.304,0.303,0.2694,0.2682,0.2731,0.2725,0.272,0.2715,0.2712,0,0.146,0.1483,0.1635,0.168,0.1763,0.1885,0.197,0.2164,0.2249,0.2498,0.2546,0.2729,0.2827,0.2812,0.29,0.2902,0.2865,0.2836,0.2759,0.2685,0.2666,0.2661,0.2656,0.2703,0.2702,0.27,0.2699,0,0.1379,0.1439,0.1501,0.1601,0.1699,0.179,0.1936,0.1986,0.2199,0.2373,0.2479,0.254,0.2649,0.2702,0.2728,0.2717,0.2838,0.2781,0.2791,0.2718,0.2652,0.2637,0.2638,0.2681,0.2684,0.2685,0.2686,0,0.1315,0.1333,0.142,0.1512,0.1615,0.1674,0.1763,0.1875,0.1986,0.2259,0.228,0.2466,0.2631,0.2605,0.262,0.2603,0.2559,0.246,0.2486,0.2507,0.2391,0.2272,0.2178,0,0,0,0,0,0.1231,0.126,0.1328,0.1407,0.1506,0.1578,0.1731,0.1818,0.2026,0.2047,0.2162,0.2248,0.2305,0.2388,0.2325,0.2495,0.2552,0.2406,0.2448,0.258,0.2601,0.2482,0,0,0,0,0,0,0.1171,0.1226,0.1285,0.1318,0.1355,0.1448,0.1542,0.1674,0.1695,0.1908,0.1954,0.2102,0.2189,0.2326,0.2283,0.2303,0.2278,0.2511,0.2504,0.2568,0.2587,0.2604,0.2489,0,0,0,0,0]},{"header":{"parameterUnit":"m.s-1","parameterCategory":2,"la1":30.2991,"la2":30.254,"lo1":-89.0895,"lo2":-89.0444,"dy":0.0017,"dx":0.0017,"nx":28,"ny":28,"refTime":"2026-02-01T09:00:00:Z","depth":"4","parameterNumber":3,"parameterNumberName":"V-component_of_CURRENTS"},"data":[0,0,0,0,0,0,0,0,0,0,0,0,0,0,0,0,0,0,0,0,0,0,0,0,0,0,0,0,0,0,0,0,0,0,0,0,0,0,0,0,0,0,0,0,0,0,0,0,0,0,0,0,0,0,0,0,0,0,0.0102,0.0102,0,0.004,0.0039,0.0039,0.0005,0.0006,0.0006,0.0006,-0.0081,-0.0084,-0.0086,0,0,0,0,0,0,0,0,0,0,0,0,0,0.0152,0.0151,0.0102,0.0102,0.0101,0.004,0.0039,0.0038,0.0005,0.0006,0.0006,0.0006,-0.0081,-0.0083,-0.0086,0,0,0,0,0,0,0,0,0,0,0,0,0,0.0113,0.0151,0.0103,0.0078,0.0075,0.0041,0.0039,0.0038,0.0005,0.0006,0.0006,0.0006,-0.008,-0.0083,-0.0086,-0.0109,0,0,-0.0097,-0.0099,0,0,0,0,0,0,0,0,0.0115,0.0111,0.0082,0.008,0.0077,0.0032,0.0025,-0.0012,0.0005,0.0031,0.0006,0.0006,-0.0045,-0.0052,-0.0064,-0.0113,-0.0117,-0.0097,-0.01,-0.0101,-0.0102,0,0,0,0,0,0,0,0.0118,0.0114,0.0077,0.0082,0.0078,0.0056,0.0051,0.0018,-0.0008,0.0029,0.0026,0.0021,-0.0047,-0.0061,-0.0067,-0.0118,-0.0097,-0.0101,-0.0103,-0.0104,-0.0171,-0.017,0,0,0,0,0,0,0.013,0.0116,0.0079,0.0075,0.0098,0.0056,0.005,0.0045,-0.0007,-0.0014,0.0021,0.002,-0.0055,-0.0063,-0.007,-0.0077,-0.0101,-0.0104,-0.0106,-0.0171,-0.017,-0.017,0,0,0,0,0,0,0.0131,0.0127,0.0081,0.0095,0.0088,0.0055,0.005,0.0044,0.0034,-0.0012,-0.002,0.0018,-0.0055,-0.0065,-0.0092,-0.0081,-0.0106,-0.0109,-0.0171,-0.0171,-0.017,-0.0106,0,0,0,0,0,0,0.0133,0.0128,0.0129,0.0096,0.0087,0.0069,0.005,0.0043,0.0031,0.0028,-0.0018,-0.0026,-0.0056,-0.0086,-0.0095,-0.0087,-0.0112,-0.0172,-0.0171,-0.017,-0.0108,-0.0103,-0.0099,0,0,0,0,0,0.0135,0.0137,0.013,0.0125,0.009,0.0069,0.0063,0.0039,0.0031,0.0029,-0.0,-0.0025,-0.0089,-0.0089,-0.01,-0.0092,-0.0172,-0.0171,-0.017,-0.011,-0.0104,-0.0099,0,0,0,0,0,0,0.0157,0.0133,0.0124,0.0119,0.01,0.0064,0.006,0.0044,0.0018,0.0019,-0.0025,-0.0035,-0.0055,-0.0083,-0.0082,-0.0109,-0.0133,-0.0134,-0.0083,-0.0078,-0.0073,-0.0055,-0.0115,0,0,0,0,0,0.0164,0.0161,0.0134,0.0131,0.0124,0.0094,0.0083,0.0069,0.0042,0.0031,-0.0001,-0.0034,-0.0061,-0.0076,-0.0107,-0.0124,-0.0159,-0.0125,-0.012,-0.0115,-0.0108,-0.015,-0.0148,-0.0168,-0.0168,-0.0168,0,0,0.0171,0.0158,0.0156,0.0136,0.0119,0.012,0.0087,0.0078,0.008,0.0025,0.0016,-0.0021,-0.0063,-0.0079,-0.009,-0.01,-0.013,-0.0114,-0.011,-0.0105,-0.0149,-0.0147,-0.0145,-0.0167,-0.0167,-0.0167,0,0,0.019,0.0175,0.0183,0.0174,0.0157,0.014,0.0142,0.0112,0.01,0.0084,0.0049,0.0021,-0.0023,-0.0049,-0.0068,-0.0056,-0.0104,-0.0065,-0.0026,-0.0066,-0.0065,-0.0064,-0.0111,-0.0115,-0.0061,-0.0061,-0.0061,0,0.02,0.0209,0.0182,0.0191,0.0192,0.0156,0.0171,0.0152,0.0118,0.0112,0.0092,0.003,-0.0007,-0.0026,-0.0021,-0.0045,-0.0078,-0.0043,-0.0059,-0.0059,-0.006,-0.0108,-0.0113,-0.0058,-0.0058,-0.0058,-0.0059,0,0.0227,0.0238,0.0243,0.0246,0.0242,0.0248,0.0225,0.0218,0.0198,0.0176,0.0149,0.0093,0.006,0.0042,0.0013,-0.0003,-0.003,-0.0049,-0.0071,-0.0053,-0.0106,-0.0113,-0.0053,-0.0054,-0.0055,-0.0056,0,0,0.0237,0.026,0.0262,0.0285,0.0276,0.0279,0.0282,0.0275,0.0282,0.0237,0.0234,0.018,0.0147,0.0123,0.0079,0.0042,0.0005,0.0003,-0.0001,-0.0039,-0.0091,-0.0099,-0.0108,-0.0017,-0.0018,-0.0018,-0.0129,0,0.0268,0.0312,0.0308,0.0351,0.0374,0.0354,0.0362,0.035,0.0327,0.0311,0.025,0.0228,0.0179,0.0164,0.012,0.0034,-0.0008,0.0037,-0.0107,-0.0111,-0.0116,-0.0114,-0.002,-0.0134,-0.0136,-0.0137,-0.0138,0,0.0292,0.0325,0.0377,0.0419,0.0426,0.0445,0.0459,0.0463,0.0429,0.0409,0.0371,0.0316,0.0258,0.0212,0.0079,0.011,0.0021,-0.0052,-0.0058,-0.009,-0.0131,-0.0156,-0.015,-0.0149,-0.0148,-0.0148,-0.0147,0,0.032,0.037,0.0421,0.0434,0.047,0.0492,0.0509,0.0495,0.0511,0.0475,0.0472,0.0385,0.0346,0.0226,0.0074,0.0078,-0.0085,-0.0101,-0.0196,-0.0198,-0.0187,-0.0186,-0.0194,-0.0194,-0.0193,-0.0193,-0.0193,0,0.0352,0.0394,0.0445,0.0474,0.0541,0.0543,0.0601,0.0595,0.0595,0.0618,0.0533,0.0513,0.0349,0.0232,0.0091,-0.0075,-0.0075,-0.0188,-0.0224,-0.0158,-0.0153,-0.0192,-0.019,-0.0197,-0.0196,-0.0195,-0.0195,0,0.0378,0.0405,0.0475,0.0534,0.0559,0.061,0.0681,0.0718,0.0703,0.0726,0.0719,0.061,0.0458,0.0275,0.0067,-0.0043,-0.0209,-0.027,-0.0193,-0.0223,-0.03,-0.0293,-0.0374,-0.0376,-0.0377,-0.0377,-0.0378,0,0.0403,0.0438,0.0528,0.0582,0.0618,0.0697,0.0753,0.0774,0.0812,0.0781,0.079,0.0655,0.0559,0.0267,0.0062,-0.0211,-0.0248,-0.0333,-0.0307,-0.029,-0.0317,-0.0309,-0.0302,-0.038,-0.038,-0.038,-0.038,0,0.045,0.0475,0.0532,0.0643,0.0721,0.0814,0.0889,0.0919,0.0932,0.0923,0.0857,0.0697,0.0519,0.0279,0.006,-0.0136,-0.0275,-0.0344,-0.0343,-0.0318,-0.0297,-0.0321,-0.0313,-0.0384,-0.0383,-0.0383,-0.0383,0,0.049,0.0528,0.0598,0.07,0.0798,0.0887,0.0931,0.097,0.0998,0.0955,0.0927,0.0727,0.0611,0.0315,0.011,-0.0083,-0.0125,-0.0175,-0.0183,-0.0182,-0.0096,-0.0038,-0.0073,0,0,0,0,0,0.0528,0.0565,0.0654,0.0752,0.0852,0.0915,0.1,0.1029,0.1034,0.1008,0.0972,0.0805,0.0502,0.0362,0.0172,0.0077,-0.0172,-0.0154,-0.0236,-0.0402,-0.0398,-0.0331,0,0,0,0,0,0,0.0543,0.062,0.065,0.0777,0.0853,0.0965,0.1024,0.1037,0.1019,0.0994,0.0839,0.0761,0.0466,0.0616,0.017,0.0107,0.003,-0.0296,-0.03,-0.0404,-0.0401,-0.0398,-0.0327,0,0,0,0,0]}]]